{"data":{"norad_id":64028,"intl_designator":"2025-102G","name":"STARLINK-33953","alt_names":[],"object_type":"PAYLOAD","status":"ACTIVE","operator":null,"country":"US","launch_date":"2025-05-16","launch_site_code":"AFWTR","launch_vehicle":null,"mission":null,"orbit_class":"UNKNOWN","rcs_meters":null,"size_class":null,"mass_kg":null,"dimensions":null,"purposes":["comms"],"wikipedia_slug":null,"has_3d_model":false,"image_url":null,"decayed_at":null,"tle_current":{"epoch":"2026-09-20T22:03:00.088128Z","epoch_age_seconds":107398,"freshness":"FRESH","line1":"1 64028U 25102G   26263.91875102  .00015657  00000+0  54766-3 0  9996","line2":"2 64028  70.0003 339.8941 0003311 272.1083  87.9713 15.29597134 75351","mean_motion":15.29597134,"eccentricity":0.0003311,"inclination_deg":70.0003,"raan_deg":339.8941,"arg_perigee_deg":272.1083,"mean_anomaly_deg":87.9713,"bstar":0.00054766,"rev_number":7535,"period_min":94.142435808199,"perigee_km":474.74596875683,"apogee_km":479.28545088127,"semimajor_km":6855.152709819,"source":"CELESTRAK","updated_at":"2026-09-21T09:00:35.187038Z"}}}